Weather History for GMME - March, 2013

Change the Weather History Date:

Tuesday, March 12, 2013

  Actual Average Record
Temperature  
Mean Temperature 58 °F -  
Max Temperature 66 °F 66 °F 86 °F (2003)
Min Temperature 51 °F 49 °F 35 °F (2012)
Degree Days  
Heating Degree Days 6    
Growing Degree Days 8 (Base 50)    
Moisture  
Dew Point 53 °F    
Average Humidity 84    
Maximum Humidity 94    
Minimum Humidity 66    
Precipitation  
Precipitation 0.24 in 0.08 in - ()
Sea Level Pressure  
Sea Level Pressure 29.91 in    
Wind  
Wind Speed 11 mph ()    
Max Wind Speed 23 mph    
Max Gust Speed 33 mph    
Visibility 3.6 miles    
Events Rain    
Averages and records for this station are not official NWS values.
T = Trace of Precipitation, MM = Missing Value Source: Averaged Metar Reports

Daily Weather History Graph

Daily Weather History Graph

Search for Another Location

Airport or City:

Trip Planner

Search our weather history database for the weather conditions in past years. The results will help you decide how hot, cold, wet, or windy it might be!

Date:

Astronomy

Mar. 12, 2013 Rise Set
Actual Time 6:41 AM WET 6:32 PM WET
Civil Twilight 6:16 AM WET 6:57 PM WET
Nautical Twilight 5:47 AM WET 7:26 PM WET
Astronomical Twilight 5:18 AM WET 7:55 PM WET
Moon 6:44 AM WET (3/12) 7:28 PM WET (3/12)
Length of Visible Light 12h 40m
Length of Day
11h 50m
New Moon, 1% of the Moon is Illuminated
Mar 12
New Moon
Mar 19
First Quarter
Mar 27
Full
Apr 3
Last Quarter
Apr 10
New

Hourly Weather History & Observations

Time (WET) Temp. Dew Point Humidity Pressure Visibility Wind Dir Wind Speed Gust Speed Precip Events Conditions
12:00 AM 52 °F 49 °F 87% 30.04 in 4 mi South 5.8 mph - -   Partly Cloudy
12:00 AM 51.8 °F 50.0 °F 94% 30.04 in 3.7 mi South 5.8 mph - N/A   Scattered Clouds
12:30 AM 53.6 °F 50.0 °F 88% 30.01 in 3.7 mi South 5.8 mph - N/A   Scattered Clouds
1:00 AM 51.8 °F 50.0 °F 94% 30.01 in 3.1 mi South 4.6 mph - N/A   Scattered Clouds
1:30 AM 53.6 °F 50.0 °F 88% 29.98 in 3.1 mi South 5.8 mph - N/A   Scattered Clouds
2:00 AM 51.8 °F 50.0 °F 94% 29.98 in 3.1 mi South 4.6 mph - N/A   Scattered Clouds
2:30 AM 51.8 °F 50.0 °F 94% 29.98 in 3.1 mi South 4.6 mph - N/A   Scattered Clouds
3:00 AM 53 °F 50 °F 85% 29.98 in 3 mi South 5.8 mph - -   Partly Cloudy
3:00 AM 53.6 °F 50.0 °F 88% 29.98 in 3.1 mi South 5.8 mph - N/A   Scattered Clouds
3:30 AM 53.6 °F 50.0 °F 88% 29.98 in 3.1 mi SSW 6.9 mph - N/A   Scattered Clouds
4:00 AM 53.6 °F 50.0 °F 88% 29.95 in 3.1 mi South 6.9 mph - N/A   Scattered Clouds
4:30 AM 53.6 °F 50.0 °F 88% 29.95 in 3.1 mi SSW 5.8 mph - N/A   Scattered Clouds
5:00 AM 53.6 °F 50.0 °F 88% 29.95 in 3.1 mi SSW 6.9 mph - N/A   Scattered Clouds
5:30 AM 53.6 °F 50.0 °F 88% 29.95 in 3.1 mi SSW 9.2 mph - N/A   Scattered Clouds
6:00 AM 54 °F 49 °F 79% 29.95 in 3 mi SSW 9.2 mph - -   Mostly Cloudy
6:00 AM 53.6 °F 50.0 °F 88% 29.95 in 3.1 mi SSW 9.2 mph - N/A   Scattered Clouds
6:30 AM 55.4 °F 50.0 °F 82% 29.95 in 3.7 mi SSW 9.2 mph - N/A   Mostly Cloudy
7:00 AM 55.4 °F 50.0 °F 82% 29.95 in 3.7 mi SSW 9.2 mph - N/A   Mostly Cloudy
8:00 AM 55.4 °F 50.0 °F 82% 29.95 in 5.0 mi SSW 12.7 mph - N/A   Mostly Cloudy
8:30 AM 55.4 °F 50.0 °F 82% 29.95 in 5.0 mi SSW 12.7 mph - N/A   Mostly Cloudy
9:00 AM 57 °F 50 °F 70% 29.96 in 5 mi SSW 16.1 mph - -   Overcast
9:00 AM 57.2 °F 50.0 °F 77% 29.95 in 5.0 mi SSW 16.1 mph - N/A   Mostly Cloudy
9:30 AM 57.2 °F 50.0 °F 77% 29.95 in 5.0 mi SSW 16.1 mph - N/A   Mostly Cloudy
10:00 AM 59.0 °F 50.0 °F 72% 29.92 in 5.0 mi SSW 16.1 mph - N/A   Mostly Cloudy
10:30 AM 59.0 °F 50.0 °F 72% 29.92 in 5.0 mi SSW 19.6 mph - N/A   Mostly Cloudy
11:00 AM 59.0 °F 50.0 °F 72% 29.92 in 5.0 mi SSW 16.1 mph - N/A   Mostly Cloudy
11:30 AM 59.0 °F 48.2 °F 67% 29.92 in 5.0 mi SW 19.6 mph - N/A   Mostly Cloudy
12:00 PM 58 °F 50 °F 66% 29.91 in 5 mi SSW 16.1 mph - -   Overcast
12:00 PM 59.0 °F 50.0 °F 72% 29.89 in 5.0 mi SSW 16.1 mph - N/A   Mostly Cloudy
12:30 PM 60.8 °F 50.0 °F 68% 29.89 in 5.0 mi SW 19.6 mph - N/A   Mostly Cloudy
1:00 PM 60.8 °F 50.0 °F 68% 29.89 in 5.0 mi SW 19.6 mph - N/A   Mostly Cloudy
1:30 PM 62.6 °F 51.8 °F 68% 29.86 in 5.0 mi SW 20.7 mph 33.4 mph N/A   Mostly Cloudy
2:00 PM 62.6 °F 51.8 °F 68% 29.86 in 5.0 mi SW 18.4 mph - N/A   Mostly Cloudy
2:30 PM 62.6 °F 53.6 °F 72% 29.86 in 5.0 mi SW 17.3 mph - N/A   Mostly Cloudy
3:00 PM 62 °F 54 °F 68% 29.87 in 5 mi WSW 16.1 mph - -   Overcast
3:00 PM 62.6 °F 53.6 °F 72% 29.86 in 5.0 mi WSW 17.3 mph - N/A   Mostly Cloudy
3:15 PM 60.8 °F 55.4 °F 82% 29.86 in 3.1 mi WSW 19.6 mph 32.2 mph N/A Rain Light Rain
4:00 PM 60.8 °F 55.4 °F 82% 29.86 in 3.1 mi WSW 19.6 mph - N/A Rain Light Rain
4:53 PM 60.8 °F 55.4 °F 82% 29.83 in 1.9 mi WSW 20.7 mph 33.4 mph N/A Rain Light Rain
5:00 PM 60.8 °F 57.2 °F 88% 29.83 in 1.9 mi WSW 21.9 mph - N/A Rain Rain
5:30 PM 59.0 °F 57.2 °F 94% 29.83 in 1.9 mi SW 19.6 mph - N/A Rain Rain
6:00 PM 59 °F 55 °F 84% 32.43 in 3 mi SW 9.2 mph - - Rain Light Rain Showers
6:00 PM 59.0 °F 57.2 °F 94% 29.83 in 3.1 mi SW 18.4 mph - N/A   Mostly Cloudy
6:01 PM 59.0 °F 57.2 °F 94% 29.86 in 3.1 mi SW 18.4 mph - N/A   Mostly Cloudy
6:30 PM 59.0 °F 57.2 °F 94% 29.83 in 3.1 mi SW 19.6 mph - N/A   Mostly Cloudy
7:00 PM 59.0 °F 57.2 °F 94% 29.83 in 3.1 mi SW 16.1 mph - N/A   Mostly Cloudy
7:30 PM 59.0 °F 57.2 °F 94% 29.86 in 3.1 mi SW 18.4 mph - N/A Rain Light Rain
8:00 PM 59.0 °F 57.2 °F 94% 29.86 in 3.1 mi SW 18.4 mph - N/A Rain Light Rain
8:30 PM 59.0 °F 57.2 °F 94% 29.83 in 2.5 mi SW 20.7 mph 33.4 mph N/A Rain Light Rain
9:00 PM 59 °F 57 °F 92% 29.86 in 2 mi SW 19.6 mph - - Rain Light Rain
9:00 PM 59.0 °F 57.2 °F 94% 29.86 in 2.5 mi SW 19.6 mph - N/A Rain Light Rain
9:30 PM 59.0 °F 57.2 °F 94% 29.83 in 2.5 mi SW 19.6 mph - N/A Rain Light Rain
10:00 PM 59.0 °F 57.2 °F 94% 29.86 in 2.5 mi SW 20.7 mph - N/A Rain Light Rain
10:30 PM 59.0 °F 57.2 °F 94% 29.83 in 2.5 mi SW 23.0 mph - N/A Rain Light Rain
11:00 PM 59.0 °F 57.2 °F 94% 29.83 in 2.5 mi SW 20.7 mph - N/A Rain Light Rain
11:30 PM 59.0 °F 57.2 °F 94% 29.86 in 2.5 mi WSW 15.0 mph - N/A Rain Light Rain